ARG4522 SAVE-SAZR

Flight info

Callsign ARG4522
Flight time 1h 23m
Altitude 34000
Route ESQ UW44 BAR UW26 NEU UZ114 OSEKO UZ127 OSA
Aircraft B738/M-SDE2E3FGHIRWXY/LB1

Departure

Time 2026-04-16 11:03
Airport Esquel Brigadier Antonio Parodi International Airport (SAVE)

Arrival

Time 2026-04-16 12:27
Airport Santa Rosa Airport (SAZR)
Time Latitude Longitude Altitude Speed Heading
2026-04-16 10:53 -42.90628 -71.14602 2619 ft 0 kts 276°
2026-04-16 11:00 -42.90633 -71.14620 2651 ft 5 kts 241°
2026-04-16 11:00 -42.90679 -71.14615 2682 ft 9 kts 152°
2026-04-16 11:01 -42.90736 -71.14575 2685 ft 9 kts 166°
2026-04-16 11:01 -42.90796 -71.14595 2686 ft 9 kts 205°
2026-04-16 11:01 -42.90851 -71.14631 2687 ft 9 kts 205°
2026-04-16 11:01 -42.90904 -71.14668 2687 ft 8 kts 210°
2026-04-16 11:02 -42.90952 -71.14709 2686 ft 8 kts 215°
2026-04-16 11:02 -42.90966 -71.14750 2689 ft 3 kts 307°
2026-04-16 11:02 -42.90949 -71.14745 2687 ft 3 kts 39°
2026-04-16 11:02 -42.90932 -71.14708 2688 ft 20 kts 57°
2026-04-16 11:03 -42.90699 -71.14223 2674 ft 100 kts 57°
2026-04-16 11:03 -42.90188 -71.13151 2648 ft 167 kts 57°
2026-04-16 11:03 -42.88526 -71.10164 3527 ft 213 kts 29°
2026-04-16 11:04 -42.87596 -71.09728 4003 ft 218 kts
2026-04-16 11:04 -42.86050 -71.09881 4635 ft 229 kts 348°
2026-04-16 11:04 -42.83911 -71.10239 5422 ft 242 kts 352°
2026-04-16 11:04 -42.82200 -71.10368 6092 ft 250 kts 353°
2026-04-16 11:05 -42.80458 -71.10464 6940 ft 249 kts 352°
2026-04-16 11:05 -42.78717 -71.10553 7733 ft 252 kts 352°
2026-04-16 11:05 -42.77521 -71.10614 8175 ft 257 kts 352°
2026-04-16 11:05 -42.75733 -71.10706 9030 ft 256 kts 351°
2026-04-16 11:06 -42.73953 -71.10796 9872 ft 257 kts 350°
2026-04-16 11:06 -42.72171 -71.10891 10510 ft 262 kts 350°
2026-04-16 11:06 -42.70334 -71.10988 11194 ft 266 kts 350°
2026-04-16 11:06 -42.68430 -71.11095 11521 ft 286 kts 351°
2026-04-16 11:07 -42.66360 -71.11216 11688 ft 308 kts 351°
2026-04-16 11:07 -42.64143 -71.11342 11856 ft 330 kts 352°
2026-04-16 11:07 -42.61798 -71.11469 12196 ft 343 kts 352°
2026-04-16 11:07 -42.59393 -71.11591 12778 ft 348 kts 352°
2026-04-16 11:08 -42.56958 -71.11712 13468 ft 352 kts 352°
2026-04-16 11:08 -42.54502 -71.11835 14081 ft 355 kts 352°
2026-04-16 11:08 -42.52020 -71.11961 14666 ft 359 kts 353°
2026-04-16 11:08 -42.49507 -71.12090 15226 ft 364 kts 353°
2026-04-16 11:09 -42.46956 -71.12223 15769 ft 369 kts 353°
2026-04-16 11:09 -42.44383 -71.12357 16361 ft 372 kts 353°
2026-04-16 11:09 -42.41786 -71.12492 16924 ft 375 kts 354°
2026-04-16 11:09 -42.39160 -71.12630 17456 ft 380 kts 354°
2026-04-16 11:10 -42.36503 -71.12769 18003 ft 384 kts 354°
2026-04-16 11:10 -42.33817 -71.12910 18486 ft 389 kts 354°
2026-04-16 11:10 -42.31107 -71.13051 19015 ft 390 kts 354°
2026-04-16 11:10 -42.28389 -71.13192 19593 ft 391 kts 354°
2026-04-16 11:11 -42.25664 -71.13334 20126 ft 393 kts 354°
2026-04-16 11:11 -42.22920 -71.13477 20631 ft 396 kts 353°
2026-04-16 11:11 -42.20156 -71.13622 21130 ft 398 kts 353°
2026-04-16 11:11 -42.17376 -71.13767 21622 ft 400 kts 353°
2026-04-16 11:12 -42.14584 -71.13913 22114 ft 403 kts 353°
2026-04-16 11:12 -42.11776 -71.14059 22573 ft 405 kts 353°
2026-04-16 11:12 -42.08989 -71.14204 23053 ft 407 kts 353°
2026-04-16 11:12 -42.06112 -71.14354 23527 ft 410 kts 353°
2026-04-16 11:13 -42.03256 -71.14503 23931 ft 411 kts 353°
2026-04-16 11:13 -42.00431 -71.14649 24350 ft 412 kts 353°
2026-04-16 11:13 -41.97569 -71.14796 24770 ft 412 kts 353°
2026-04-16 11:13 -41.94698 -71.14944 25160 ft 413 kts 353°
2026-04-16 11:14 -41.91783 -71.15095 25547 ft 414 kts 353°
2026-04-16 11:14 -41.88935 -71.15243 25922 ft 415 kts 353°
2026-04-16 11:14 -41.86046 -71.15392 26280 ft 416 kts 353°
2026-04-16 11:14 -41.83109 -71.15544 26627 ft 418 kts 353°
2026-04-16 11:15 -41.80235 -71.15692 26954 ft 419 kts 353°
2026-04-16 11:15 -41.77320 -71.15842 27316 ft 420 kts 353°
2026-04-16 11:15 -41.74403 -71.15992 27682 ft 420 kts 353°
2026-04-16 11:15 -41.71475 -71.16142 27977 ft 422 kts 353°
2026-04-16 11:16 -41.68531 -71.16288 28258 ft 424 kts 353°
2026-04-16 11:16 -41.65581 -71.16431 28551 ft 425 kts 353°
2026-04-16 11:16 -41.62623 -71.16573 28856 ft 425 kts 353°
2026-04-16 11:16 -41.59669 -71.16713 29266 ft 424 kts 353°
2026-04-16 11:17 -41.56730 -71.16852 29756 ft 421 kts 353°
2026-04-16 11:17 -41.53812 -71.16990 30184 ft 418 kts 353°
2026-04-16 11:17 -41.50911 -71.17130 30517 ft 417 kts 353°
2026-04-16 11:17 -41.48007 -71.17270 30817 ft 417 kts 353°
2026-04-16 11:18 -41.45108 -71.17411 31120 ft 417 kts 353°
2026-04-16 11:18 -41.42214 -71.17550 31454 ft 415 kts 353°
2026-04-16 11:18 -41.39330 -71.17689 31787 ft 414 kts 353°
2026-04-16 11:18 -41.36449 -71.17827 32091 ft 413 kts 353°
2026-04-16 11:19 -41.33578 -71.17964 32397 ft 413 kts 353°
2026-04-16 11:19 -41.30707 -71.18102 32685 ft 413 kts 353°
2026-04-16 11:19 -41.27839 -71.18239 33003 ft 412 kts 353°
2026-04-16 11:19 -41.24982 -71.18376 33309 ft 410 kts 353°
2026-04-16 11:20 -41.22130 -71.18512 33599 ft 410 kts 353°
2026-04-16 11:20 -41.19284 -71.18648 33863 ft 409 kts 353°
2026-04-16 11:20 -41.16424 -71.18371 34045 ft 420 kts
2026-04-16 11:20 -41.13649 -71.17034 34271 ft 430 kts 20°
2026-04-16 11:21 -41.11108 -71.14859 34465 ft 443 kts 35°
2026-04-16 11:21 -41.08932 -71.11895 34656 ft 450 kts 41°
2026-04-16 11:21 -41.06843 -71.08796 34861 ft 452 kts 41°
2026-04-16 11:22 -41.02648 -71.02504 34880 ft 459 kts 41°
2026-04-16 11:22 -40.98343 -70.96177 34875 ft 465 kts 41°
2026-04-16 11:23 -40.93968 -70.89840 34871 ft 468 kts 41°
2026-04-16 11:23 -40.89564 -70.83492 34891 ft 469 kts 41°
2026-04-16 11:24 -40.85150 -70.77139 34891 ft 469 kts 41°
2026-04-16 11:24 -40.80767 -70.70841 34893 ft 468 kts 41°
2026-04-16 11:25 -40.76361 -70.64522 34899 ft 467 kts 41°
2026-04-16 11:25 -40.71955 -70.58222 34894 ft 467 kts 41°
2026-04-16 11:26 -40.67554 -70.51938 34902 ft 466 kts 41°
2026-04-16 11:26 -40.63154 -70.45663 34902 ft 466 kts 41°
2026-04-16 11:27 -40.58755 -70.39409 34904 ft 465 kts 41°
2026-04-16 11:27 -40.54353 -70.33172 34903 ft 465 kts 41°
2026-04-16 11:28 -40.49947 -70.26944 34902 ft 466 kts 41°
2026-04-16 11:28 -40.45529 -70.20709 34911 ft 466 kts 41°
2026-04-16 11:29 -40.41103 -70.14474 34905 ft 467 kts 41°
2026-04-16 11:29 -40.36663 -70.08230 34913 ft 469 kts 41°
2026-04-16 11:30 -40.32205 -70.01975 34922 ft 470 kts 41°
2026-04-16 11:30 -40.27721 -69.95698 34925 ft 473 kts 41°
2026-04-16 11:31 -40.23216 -69.89403 34928 ft 475 kts 41°
2026-04-16 11:31 -40.18693 -69.83095 34937 ft 476 kts 41°
2026-04-16 11:32 -40.14186 -69.76823 34925 ft 477 kts 42°
2026-04-16 11:32 -40.09636 -69.70504 34936 ft 478 kts 42°
2026-04-16 11:33 -40.05075 -69.64183 34939 ft 478 kts 42°
2026-04-16 11:33 -40.00516 -69.57878 34943 ft 478 kts 42°
2026-04-16 11:34 -39.95952 -69.51581 34952 ft 478 kts 42°
2026-04-16 11:34 -39.91382 -69.45287 34953 ft 478 kts 42°
2026-04-16 11:35 -39.86814 -69.39010 34955 ft 477 kts 42°
2026-04-16 11:35 -39.82241 -69.32739 34956 ft 477 kts 42°
2026-04-16 11:36 -39.77672 -69.26485 34955 ft 477 kts 42°
2026-04-16 11:36 -39.73104 -69.20246 34960 ft 476 kts 42°
2026-04-16 11:37 -39.68530 -69.14012 34955 ft 476 kts 42°
2026-04-16 11:37 -39.63958 -69.07794 34957 ft 476 kts 42°
2026-04-16 11:38 -39.59378 -69.01578 34949 ft 477 kts 43°
2026-04-16 11:38 -39.54794 -68.95368 34953 ft 477 kts 43°
2026-04-16 11:39 -39.50233 -68.89203 34944 ft 477 kts 43°
2026-04-16 11:39 -39.45632 -68.82996 34942 ft 478 kts 43°
2026-04-16 11:40 -39.41022 -68.76789 34945 ft 479 kts 43°
2026-04-16 11:40 -39.36401 -68.70580 34942 ft 479 kts 43°
2026-04-16 11:41 -39.31770 -68.64371 34944 ft 481 kts 43°
2026-04-16 11:41 -39.27121 -68.58150 34941 ft 482 kts 43°
2026-04-16 11:42 -39.22460 -68.51925 34942 ft 483 kts 43°
2026-04-16 11:42 -39.17788 -68.45699 34937 ft 483 kts 43°
2026-04-16 11:43 -39.13108 -68.39472 34931 ft 484 kts 43°
2026-04-16 11:43 -39.08421 -68.33251 34924 ft 484 kts 43°
2026-04-16 11:44 -39.03730 -68.27036 34915 ft 484 kts 43°
2026-04-16 11:44 -38.99032 -68.20822 34912 ft 484 kts 43°
2026-04-16 11:45 -38.93986 -68.15163 34912 ft 479 kts 30°
2026-04-16 11:45 -38.88063 -68.11395 34918 ft 475 kts 20°
2026-04-16 11:46 -38.81983 -68.08073 34921 ft 475 kts 20°
2026-04-16 11:46 -38.75953 -68.04716 34937 ft 476 kts 21°
2026-04-16 11:47 -38.69891 -68.01293 34936 ft 476 kts 21°
2026-04-16 11:47 -38.63833 -67.97871 34945 ft 476 kts 21°
2026-04-16 11:48 -38.57767 -67.94454 34942 ft 476 kts 21°
2026-04-16 11:48 -38.51784 -67.90790 34928 ft 480 kts 31°
2026-04-16 11:49 -38.46873 -67.85019 34945 ft 484 kts 52°
2026-04-16 11:49 -38.43234 -67.77780 34949 ft 485 kts 57°
2026-04-16 11:50 -38.39655 -67.70482 34952 ft 485 kts 57°
2026-04-16 11:50 -38.36042 -67.63220 34952 ft 485 kts 56°
2026-04-16 11:51 -38.32400 -67.55972 34954 ft 485 kts 56°
2026-04-16 11:51 -38.28754 -67.48744 34945 ft 485 kts 56°
2026-04-16 11:52 -38.25133 -67.41582 34942 ft 484 kts 56°
2026-04-16 11:52 -38.21487 -67.34380 34946 ft 484 kts 56°
2026-04-16 11:53 -38.17841 -67.27194 34940 ft 483 kts 56°
2026-04-16 11:53 -38.14194 -67.20024 34941 ft 483 kts 56°
2026-04-16 11:54 -38.10546 -67.12865 34941 ft 483 kts 56°
2026-04-16 11:54 -38.07489 -67.06878 34950 ft 482 kts 56°
2026-04-16 11:55 -38.03835 -66.99736 34952 ft 482 kts 56°
2026-04-16 11:55 -38.00180 -66.92608 34943 ft 482 kts 56°
2026-04-16 11:56 -37.96542 -66.85529 34943 ft 482 kts 56°
2026-04-16 11:56 -37.92877 -66.78414 34950 ft 482 kts 56°
2026-04-16 11:57 -37.89205 -66.71300 34956 ft 482 kts 56°
2026-04-16 11:57 -37.85528 -66.64190 34949 ft 483 kts 56°
2026-04-16 11:58 -37.81849 -66.57092 34954 ft 483 kts 56°
2026-04-16 11:58 -37.78163 -66.49997 34955 ft 483 kts 56°
2026-04-16 11:59 -37.74471 -66.42906 34954 ft 483 kts 56°
2026-04-16 11:59 -37.70774 -66.35820 34962 ft 483 kts 56°
2026-04-16 12:00 -37.67072 -66.28740 34959 ft 483 kts 56°
2026-04-16 12:00 -37.64761 -66.24326 34962 ft 483 kts 56°
2026-04-16 12:01 -37.63725 -66.22351 34958 ft 483 kts 56°
2026-04-16 12:02 -37.58234 -66.11894 34952 ft 470 kts 56°
2026-04-16 12:02 -37.54625 -66.05043 34792 ft 471 kts 56°
2026-04-16 12:03 -37.52801 -66.01585 34231 ft 473 kts 56°
2026-04-16 12:03 -37.50982 -65.98141 33617 ft 473 kts 56°
2026-04-16 12:03 -37.49156 -65.94685 32937 ft 474 kts 56°
2026-04-16 12:03 -37.47328 -65.91231 32270 ft 475 kts 56°
2026-04-16 12:04 -37.45519 -65.87814 31611 ft 475 kts 56°
2026-04-16 12:04 -37.43657 -65.84302 30916 ft 477 kts 56°
2026-04-16 12:04 -37.41839 -65.80876 30236 ft 478 kts 56°
2026-04-16 12:04 -37.39987 -65.77391 29409 ft 481 kts 56°
2026-04-16 12:05 -37.38136 -65.73910 28869 ft 476 kts 56°
2026-04-16 12:05 -37.36305 -65.70469 28296 ft 471 kts 56°
2026-04-16 12:05 -37.34490 -65.67064 27782 ft 467 kts 56°
2026-04-16 12:05 -37.32693 -65.63694 27243 ft 463 kts 56°
2026-04-16 12:06 -37.30906 -65.60349 26727 ft 458 kts 56°
2026-04-16 12:06 -37.29139 -65.57042 26209 ft 455 kts 56°
2026-04-16 12:06 -37.27382 -65.53758 25709 ft 451 kts 55°
2026-04-16 12:06 -37.25638 -65.50504 25207 ft 448 kts 55°
2026-04-16 12:07 -37.23908 -65.47275 24714 ft 445 kts 55°
2026-04-16 12:07 -37.22185 -65.44066 24211 ft 442 kts 55°
2026-04-16 12:07 -37.20471 -65.40875 23703 ft 440 kts 55°
2026-04-16 12:07 -37.18765 -65.37701 23128 ft 437 kts 55°
2026-04-16 12:08 -37.17070 -65.34553 22587 ft 434 kts 55°
2026-04-16 12:08 -37.15388 -65.31429 22078 ft 430 kts 55°
2026-04-16 12:08 -37.13718 -65.28333 21573 ft 427 kts 55°
2026-04-16 12:08 -37.12064 -65.25267 21069 ft 423 kts 55°
2026-04-16 12:09 -37.10421 -65.22227 20603 ft 420 kts 55°
2026-04-16 12:09 -37.08791 -65.19211 20122 ft 417 kts 55°
2026-04-16 12:09 -37.07171 -65.16217 19645 ft 414 kts 55°
2026-04-16 12:09 -37.05559 -65.13241 19175 ft 412 kts 55°
2026-04-16 12:10 -37.03956 -65.10285 18703 ft 409 kts 55°
2026-04-16 12:10 -37.02381 -65.07382 18203 ft 408 kts 55°
2026-04-16 12:10 -37.00771 -65.04416 17664 ft 406 kts 55°
2026-04-16 12:10 -36.99190 -65.01508 17165 ft 403 kts 55°
2026-04-16 12:11 -36.97621 -64.98624 16684 ft 400 kts 55°
2026-04-16 12:11 -36.96083 -64.95799 16223 ft 396 kts 55°
2026-04-16 12:11 -36.94537 -64.92960 15762 ft 393 kts 55°
2026-04-16 12:11 -36.93002 -64.90146 15303 ft 391 kts 55°
2026-04-16 12:12 -36.91473 -64.87344 14846 ft 389 kts 55°
2026-04-16 12:12 -36.89956 -64.84567 14389 ft 386 kts 54°
2026-04-16 12:12 -36.88443 -64.81799 13911 ft 385 kts 54°
2026-04-16 12:12 -36.86936 -64.79045 13432 ft 383 kts 54°
2026-04-16 12:13 -36.85439 -64.76311 12941 ft 380 kts 54°
2026-04-16 12:13 -36.83954 -64.73602 12477 ft 377 kts 54°
2026-04-16 12:13 -36.82480 -64.70915 12019 ft 374 kts 54°
2026-04-16 12:13 -36.81032 -64.68275 11816 ft 360 kts 54°
2026-04-16 12:14 -36.79654 -64.65765 11645 ft 341 kts 54°
2026-04-16 12:14 -36.78346 -64.63385 11494 ft 324 kts 54°
2026-04-16 12:14 -36.77105 -64.61128 11358 ft 308 kts 54°
2026-04-16 12:14 -36.75911 -64.58958 11247 ft 300 kts 54°
2026-04-16 12:15 -36.74737 -64.56828 11128 ft 295 kts 54°
2026-04-16 12:15 -36.73579 -64.54728 11014 ft 293 kts 54°
2026-04-16 12:15 -36.72427 -64.52640 10742 ft 292 kts 54°
2026-04-16 12:15 -36.71278 -64.50557 10467 ft 291 kts 54°
2026-04-16 12:16 -36.70133 -64.48484 10188 ft 290 kts 54°
2026-04-16 12:16 -36.68991 -64.46418 9906 ft 289 kts 54°
2026-04-16 12:16 -36.67852 -64.44357 9589 ft 288 kts 54°
2026-04-16 12:16 -36.66717 -64.42306 9282 ft 287 kts 54°
2026-04-16 12:17 -36.65586 -64.40260 8983 ft 286 kts 54°
2026-04-16 12:17 -36.64459 -64.38225 8690 ft 285 kts 54°
2026-04-16 12:17 -36.63337 -64.36199 8400 ft 283 kts 54°
2026-04-16 12:17 -36.62221 -64.34186 8144 ft 281 kts 54°
2026-04-16 12:18 -36.61127 -64.32213 8023 ft 273 kts 54°
2026-04-16 12:18 -36.60072 -64.30313 7883 ft 260 kts 54°
2026-04-16 12:18 -36.59012 -64.28568 7754 ft 248 kts 40°
2026-04-16 12:18 -36.57536 -64.27601 7648 ft 237 kts 10°
2026-04-16 12:19 -36.55903 -64.27478 7593 ft 240 kts 356°
2026-04-16 12:19 -36.54209 -64.27649 7305 ft 245 kts 354°
2026-04-16 12:19 -36.52518 -64.27867 7043 ft 244 kts 354°
2026-04-16 12:19 -36.50850 -64.28078 6795 ft 244 kts 354°
2026-04-16 12:20 -36.49164 -64.28283 6533 ft 242 kts 354°
2026-04-16 12:20 -36.47481 -64.28478 6229 ft 237 kts 355°
2026-04-16 12:20 -36.45855 -64.28661 5918 ft 232 kts 355°
2026-04-16 12:20 -36.44271 -64.28836 5593 ft 226 kts 355°
2026-04-16 12:21 -36.42718 -64.29005 5258 ft 222 kts 355°
2026-04-16 12:21 -36.41193 -64.29171 4940 ft 218 kts 356°
2026-04-16 12:21 -36.39715 -64.29293 4606 ft 214 kts
2026-04-16 12:21 -36.38369 -64.28637 4266 ft 209 kts 40°
2026-04-16 12:22 -36.37567 -64.27144 3939 ft 207 kts 72°
2026-04-16 12:22 -36.37543 -64.25401 3614 ft 207 kts 105°
2026-04-16 12:22 -36.38311 -64.23912 3432 ft 200 kts 140°
2026-04-16 12:22 -36.39547 -64.23194 3395 ft 197 kts 171°
2026-04-16 12:23 -36.40886 -64.23254 3413 ft 197 kts 187°
2026-04-16 12:23 -36.42252 -64.23494 3402 ft 199 kts 189°
2026-04-16 12:23 -36.43614 -64.23806 3373 ft 199 kts 191°
2026-04-16 12:23 -36.44976 -64.24142 3179 ft 199 kts 191°
2026-04-16 12:24 -36.46314 -64.24473 2906 ft 191 kts 192°
2026-04-16 12:24 -36.47581 -64.24786 2671 ft 180 kts 191°
2026-04-16 12:24 -36.48772 -64.25080 2465 ft 171 kts 192°
2026-04-16 12:24 -36.49937 -64.25368 2224 ft 169 kts 192°
2026-04-16 12:25 -36.51077 -64.25649 1999 ft 166 kts 191°
2026-04-16 12:25 -36.52211 -64.25929 1786 ft 167 kts 191°
2026-04-16 12:25 -36.53348 -64.26209 1561 ft 166 kts 191°
2026-04-16 12:25 -36.54473 -64.26487 1333 ft 163 kts 191°
2026-04-16 12:26 -36.55568 -64.26761 1106 ft 159 kts 191°
2026-04-16 12:26 -36.56637 -64.27030 906 ft 154 kts 191°
2026-04-16 12:26 -36.57681 -64.27282 694 ft 152 kts 191°
2026-04-16 12:26 -36.58661 -64.27524 632 ft 110 kts 192°
2026-04-16 12:27 -36.59069 -64.27626 633 ft 19 kts 194°
2026-04-16 12:27 -36.59151 -64.27739 636 ft 18 kts 247°
2026-04-16 12:27 -36.59188 -64.27858 631 ft 12 kts 255°
2026-04-16 12:27 -36.59190 -64.27889 628 ft 0 kts 269°